Regional Weather Roundup
Issued by NWS

Home | Current Version | Previous Version | Graphics & Text | Print | Product List | Glossary On
Versions: 1 2 3 4 5 6 7 8 9 10 11 12 13 14 15 16 17 18 19 20 21 22 23 24 25 26 27 28 29 30 31 32 33 34 35 36 37 38 39 40 41 42 43 44 45 46 47 48 49 50
597
ASUS45 KBOU 110107
RWRCO

WEATHER ROUNDUP FOR COLORADO
NATIONAL WEATHER SERVICE DENVER/BOULDER CO
600 PM MST SAT DEC 10 2016

NOTE: "FAIR" INDICATES FEW OR NO CLOUDS BELOW 12000 FEET WITH NO
SIGNIFICANT WEATHER AND/OR OBSTRUCTIONS TO VISIBILITY.

COZ001>005-013-030-031-110200-
...NORTHWEST COLORADO...

CITY           SKY/WX    TMP DP  RH WIND       PRES   REMARKS
CRAIG          LGT RAIN  41  28  60 W10       29.87F
HAYDEN         CLOUDY    39  27  60 W10G16    29.86F
MEEKER         CLOUDY    41  28  60 SW10      29.89F
MOUNT WERNER   NOT AVBL
STEAMBOAT SPGS CLOUDY    37  31  77 W7        29.86F
WALDEN           N/A     34  28  80 W16       29.86F WCI  23
$$

COZ006>008-011-110200-
...WEST CENTRAL VALLEYS...

CITY           SKY/WX    TMP DP  RH WIND       PRES   REMARKS
GRAND JUNCTION FAIR      32  25  75 CALM      29.96F
MONTROSE       CLOUDY    36  25  64 SE5       29.99R
EAGLE          LGT RAIN  34  32  93 E8        29.96F WCI  27
RIFLE          CLOUDY    31  26  82 CALM      29.96F
DELTA          CLOUDY    38  26  63 E3        29.97
NUCLA          MOCLDY    43  27  52 SE5       30.03S
$$

COZ017>023-064>068-110200-
...SOUTHWEST COLORADO...

CITY           SKY/WX    TMP DP  RH WIND       PRES   REMARKS
DURANGO        FAIR      37  24  59 N6        30.05F
CORTEZ         FAIR      33  26  75 CALM      30.03F
PAGOSA SPRINGS FAIR      35  25  66 CALM      30.08F
TELLURIDE      CLOUDY    41  16  37 CALM      30.07S
WOLF CREEK PAS FAIR      21  21 100 SW23G33   30.14F WCI   5
$$

COZ009-010-012-014-032>034-037-058>063-110200-
...CENTRAL COLORADO...

CITY           SKY/WX    TMP DP  RH WIND       PRES   REMARKS
ASPEN          MIX PCPN  34  31  88 CALM      29.95S
BUENA VISTA    CLOUDY    40  28  63 W28G36    29.91R
COPPER MTN     NOT AVBL
BERTHOUD PASS  LGT SNOW  21   9  58 MISG      29.94S VSB 3/4
COTTONWOOD PAS LGT SNOW  34  30  86 NW16G24   29.95R WCI  23
GUNNISON       CLOUDY    26  21  81 S3        30.02R
KREMMLING      LGT RAIN  39  34  81 CALM      29.90S
LEADVILLE      SNOW      30  28  92 CALM      29.95S VSB 1/2
MONARCH PASS   CLOUDY    25  14  63 W31G37    30.13F WCI   8
SALIDA         FAIR      48  13  24 SW9       29.97R
SUNLIGHT       LGT SNOW  27  27 100 SW21G35   30.00S WCI  13
WILKERSON PASS FAIR      30  23  74 W10G25    29.98S WCI  21
$$

COZ069>075-110200-
...SAN LUIS VALLEY/SANGRE DE CRISTO MOUNTAINS...

CITY           SKY/WX    TMP DP  RH WIND       PRES   REMARKS
ALAMOSA        FAIR      43  14  31 VRB3      29.95S
LA VETA PASS   FAIR      34  16  47 NE24G44   29.94F WCI  21
SAGUACHE       FAIR      30  18  59 E6        29.95S WCI  24
$$

COZ035-036-038>040-110200-
...NORTHERN COLORADO FRONT RANGE...

CITY           SKY/WX    TMP DP  RH WIND       PRES   REMARKS
DENVER INTL AP MOCLDY    45  26  47 E3        29.72F
DMNS CITY PARK   N/A     50  28  41 NW6G16    29.72R
AURORA         MOCLDY    52  28  39 W14       29.73S
FRONT RANGE AP MOCLDY    50  28  43 NE3       29.74R
ERIE MUNI ARPT FAIR      53  28  39 W15G28    29.72R
BOULDER MUN AP FAIR      52  28  40 SW3       29.70R
CENTENNIAL     MOCLDY    49  27  42 W7        29.73S
BROOMFIELD     MOCLDY    55  28  35 SW10      29.74R
FORT COLLINS   FAIR      34  27  75 NE3       29.72S
LONGMONT       NOT AVBL
$$

COZ041-046-047-076>085-087-088-110200-
...PIKES PEAK/PALMER DIVIDE AND SOUTHERN FOOTHILLS...

CITY           SKY/WX    TMP DP  RH WIND       PRES   REMARKS
COLO. SPRINGS  MOCLDY    56  22  26 N21G31    29.73F
A. F. ACADEMY  FAIR      52  22  30 W32G49    29.68S
SCHRIEVER AFB  NOT AVBL
ELLICOTT       FAIR     N/A N/A N/A NW9       29.73F
FALCON         FAIR      52  21  28 W29G48    29.76S
FORT CARSON    FAIR      57  19  23 S29G37    29.68F
LIMON          FAIR      31  20  63 N6        29.73S WCI  25
MONUMENT HILL  FAIR      43  23  45 W8        29.79F
TRINIDAD       FAIR      52   9  17 W10       29.78F
$$

COZ042>045-048>051-090-091-110200-
...NORTHEAST COLORADO...

CITY           SKY/WX    TMP DP  RH WIND       PRES   REMARKS
GREELEY ARPT   FAIR      28  23  81 CALM      29.73S
AKRON          FAIR      38  26  62 W10       29.71F
BURLINGTON     FAIR      34  23  64 SE7       29.72F WCI  28
WRAY           NOT AVBL
STERLING       FAIR      28  25  86 SW5       29.72S WCI  23
HOLYOKE        FAIR      32  28  86 S6        29.74F WCI  26
FORT MORGAN    FAIR      29  22  76 S6        29.72F WCI  23
$$

COZ086-089-092>099-110200-
...SOUTHEAST COLORADO...

CITY           SKY/WX    TMP DP  RH WIND       PRES   REMARKS
PUEBLO         FAIR      56  18  22 NW15      29.69F
LA JUNTA       FAIR      46  22  38 S6        29.69F
LAMAR          FAIR      36  24  62 E9        29.68F
SPRINGFIELD      N/A     51  23  33 SW13      29.72F
$$




USA.gov is the U.S. government's official web portal to all federal, state and local government web resources and services.